Location: Potawatomi Wildlife Park
(41.2308°N, 86.1050°W)
Time: 08:31:47
(UTC-04:00)

Daily predictions for brighter satellites

Satellite Brightness Start Highest point End
(mag) Time Altitude Azimuth Time Altitude Azimuth Time Altitude Azimuth
Lacrosse 4 Rocket 2.7 21:39:08 10° SSE 21:42:02 19° ESE 21:44:57 10° ENE
H-2A R/B 2.3 21:37:52 10° SSE 21:42:03 55° ENE 21:46:21 10° N
YAOGAN 11 4.2 21:38:17 10° SSE 21:42:38 82° WSW 21:46:57 10° NNW
Cosmos 1464 Rocket 4.1 21:36:57 10° N 21:43:06 82° W 21:49:17 10° S
deb Chang Zheng 4 3.7 21:40:01 10° NNE 21:44:21 55° E 21:48:37 10° S
ERS-1 Rocket 3.0 21:39:24 10° SSE 21:44:23 73° ENE 21:49:25 10° N
Cosmos 2228 3.3 21:41:12 10° N 21:45:38 77° W 21:50:01 10° S
GEOS 3 Rocket 3.7 21:43:29 10° SE 21:48:46 86° NE 21:54:01 10° NW
Cosmos 1626 Rocket 3.5 21:44:53 10° S 21:49:17 76° E 21:53:42 10° N
CZ-4 DEB 4.2 21:47:43 10° S 21:50:46 39° W 21:53:50 10° NNW
Cosmos 1603 3.8 21:46:24 10° SSW 21:52:01 84° WNW 21:57:39 10° NNE
FENGYUN 3A 4.3 21:47:00 10° S 21:52:16 58° W 21:57:37 10° NNW
Atlas Centaur 2 3.5 21:49:34 10° WSW 21:55:47 36° S 22:03:00 10° ESE
Envisat 3.3 21:54:48 10° SSE 21:59:44 54° ENE 22:04:41 10° N
Cosmos 407 Rocket 4.3 21:57:45 10° SSE 22:02:17 30° E 22:06:47 10° NE
Cosmos 1943 Rocket 3.8 22:00:11 10° N 22:04:23 21° NE 22:08:35 10° ESE
Cosmos 2034 Rocket 4.3 21:58:04 10° N 22:04:26 76° W 22:10:42 10° S
Nimbus 7 Rocket 4.4 22:00:25 10° NNE 22:06:20 66° ESE 22:12:11 10° S
Cosmos 1943 3.3 22:06:48 10° S 22:12:20 60° ESE 22:17:56 10° NNE
GRACE-1 4.3 22:14:38 10° N 22:17:29 65° W 22:20:18 10° S
GRACE-2 4.3 22:15:04 10° N 22:17:55 65° W 22:20:45 10° S
Cosmos 1939 Rocket 3.0 22:14:08 10° S 22:18:17 78° WSW 22:22:26 10° NNW
Cosmos 1346 Rocket 3.0 22:27:05 15° SSE 22:30:06 48° E 22:33:54 10° NNE
Cosmos 1992 Rocket 4.1 22:28:12 10° NNW 22:33:26 74° WSW 22:37:49 15° S
SeaSat 1 2.5 22:35:39 19° SE 22:39:11 77° ENE 22:44:08 10° NNW
ARGOS 3.5 22:36:49 19° SE 22:40:27 50° ENE 22:45:41 10° N
SL-23 DEB 4.5 22:35:33 10° SW 22:42:27 59° SE 22:46:28 10° ENE
COSMOS 2455 3.9 22:36:59 10° SW 22:42:47 49° NW 22:48:37 10° NNE
USA 81 4.0 22:37:51 10° N 22:43:10 86° E 22:47:29 16° S
Cosmos 1758 Rocket 3.7 22:40:29 19° SSE 22:43:28 55° E 22:47:43 10° NNE
MetOp-B 4.2 22:45:19 17° S 22:49:34 80° WSW 22:54:58 10° NNW
ISS -0.8 22:47:07 10° W 22:49:54 25° NNW 22:52:41 10° NE
CZ-4B R/B 3.5 22:49:21 10° NNE 22:54:30 89° ESE 22:59:44 10° SSW
Cosmos 2369 Rocket 2.5 22:49:47 10° NNW 22:55:23 65° WSW 22:59:14 20° S
Cosmos 1190 Rocket 4.4 22:53:56 10° SSW 22:59:12 66° WNW 23:04:31 10° NNE
Cosmos 1825 Rocket 4.2 22:55:08 10° SSW 22:59:29 56° W 23:03:52 10° N
Landsat 7 4.3 22:58:24 27° SE 23:00:32 45° ENE 23:05:05 10° N
Cosmos 1766 3.3 22:57:26 10° N 23:01:28 69° E 23:03:02 35° SSE
CZ-4 R/B 3.9 23:00:41 10° NNE 23:05:43 80° ESE 23:09:21 19° S
H-2A R/B 2.6 23:04:51 27° ESE 23:06:58 41° ENE 23:11:44 10° N
PSLV R/B 3.2 23:03:41 10° W 23:07:14 82° S 23:08:17 43° ESE
Cosmos 1758 4.1 23:03:25 10° N 23:07:17 38° ENE 23:08:15 32° ESE
DELTA 2 DEB (DPAF) 4.3 23:05:25 33° SE 23:07:19 63° ENE 23:11:46 10° N
YAOGAN 6 3.1 23:06:29 27° SSW 23:08:19 56° W 23:12:01 10° NNW
NOAA 11 4.1 23:05:44 27° SSE 23:08:48 81° ENE 23:14:15 10° NNW
ATLAS 3B R/B 3.2 23:01:21 10° SW 23:09:02 72° NW 23:16:34 10° NNE
Cosmos 1140 Rocket 3.8 23:07:18 30° SSE 23:09:24 45° ESE 23:14:23 10° NNE
IGS 5A 4.3 23:12:42 30° ESE 23:13:45 35° ENE 23:17:33 10° N
SPOT 5 4.2 23:11:38 12° SSW 23:15:05 28° W 23:18:50 10° NW
SPOT 1/Viking Rocket 3.8 23:12:56 23° S 23:16:04 63° WSW 23:21:12 10° NNW
Terra 2.3 23:14:42 32° ESE 23:16:22 45° ENE 23:20:54 10° N
Cosmos 676 Rocket 4.1 23:11:09 10° SSW 23:16:29 77° WNW 23:21:50 10° NNE
Lacrosse 4 Rocket 2.9 23:16:45 10° WSW 23:20:29 35° NW 23:24:18 10° NNE
NOSS 3-2 (A) 4.5 23:20:30 25° ESE 23:20:36 25° ESE 23:25:39 10° ENE
Cosmos 2084 3.4 23:19:17 10° NNW 23:23:26 73° NE 23:24:37 46° SE
SAR-Lupe-2 3.7 23:23:38 51° ESE 23:24:02 55° ENE 23:27:33 10° N
USA 234 3.2 23:21:49 28° SE 23:25:34 87° NE 23:32:11 10° NW
Cosmos 1470 4.3 23:24:46 10° NNE 23:27:52 22° ENE 23:27:56 22° ENE
Lacrosse 5 4.5 23:26:35 10° NNW 23:29:28 15° NNE 23:32:21 10° NE
Cosmos 1805 3.3 23:25:35 10° N 23:29:29 59° E 23:29:59 54° ESE
BREEZE-M DEB (TANK) 4.4 23:27:29 10° WNW 23:29:34 21° NNW 23:31:16 10° NE
SL-24 R/B 4.5 23:25:05 10° N 23:30:08 85° E 23:32:38 33° S
Cosmos 614 Rocket 4.3 23:30:46 40° SE 23:31:43 44° ESE 23:36:39 10° NNE
COSMOS 2406 3.1 23:33:42 28° SSW 23:36:50 75° ESE 23:42:34 10° NNE
Nadezhda 4 Rocket 4.0 23:34:52 34° SSE 23:37:42 68° E 23:43:59 10° NNE
CZ-4C R/B 3.9 23:38:41 40° SSW 23:39:49 55° W 23:43:47 10° NNW
DMSP B5D2-2 4.0 23:38:24 10° NNE 23:43:42 72° ESE 23:45:23 43° S
Atlas Centaur 2 3.6 23:38:07 10° WSW 23:44:48 33° S 23:46:02 32° S
SL-27 R/B 3.4 23:45:17 33° WSW 23:46:11 41° WNW 23:49:23 10° N
Cosmos 2221 4.0 23:44:04 10° NNE 23:47:31 23° ENE 23:47:39 23° ENE
SL-8 R/B 3.9 23:43:09 10° WNW 23:47:59 68° NNE 23:49:38 40° E
Cosmos 1943 Rocket 2.4 23:43:04 10° NNW 23:48:33 60° WSW 23:50:26 39° S
Cosmos-2242 3.6 23:46:06 10° NNW 23:50:24 52° W 23:51:34 39° SW
COSMOS 2487 3.4 23:54:06 40° NE 23:54:06 40° NE 23:56:41 10° NNE
Cosmos 1953 2.8 23:51:52 10° NNW 23:55:45 51° W 23:56:18 47° WSW
